Вернуться в каталог

STARLINK-35591

АктивенСвязьVLEO
NORAD 66984·PAYLOAD·🇺🇸 United States

Запущен Dec 8, 2025 с Cape Canaveral Space Force Station

Loading…

Ближайшие Пролёты (ближайшие 24 часа)

TLE

СвежийSource: CelesTrak SupGP

Эпоха: Sep 14, 2026, 22:31 UTC

1 66984C 25288AB  26257.93868056  .00034813  00000+0  12611-2 0  2573
2 66984  43.0044  34.9509 0001786 278.9102 213.9121 15.27556864    10

Отслеживайте STARLINK-35591 в реальном времени с AllMySat

Download on the App Store